STARLINK-1478, 45755

Orbit data source: Space-Track

STARLINK-1478, 45755 is a payload satellite owned by SpaceX/Seattle (US) in LEO that was launched on Sat, 13 Jun 2020 UTC via an FALCON 9 launch vehicle from the Air Force Eastern Test Range (AFETR). Payload-class satellites include a variety of spacecraft equipped with specific instruments for various scientific and technological missions. These include communications satellites like Starlink; space stations such as the ISS; scientific satellites like the Hubble; Earth observation satellites from companies like Planet Labs, Umbra, and HawkEye 360; GPS; miniature CubeSats for education and research; and military/defense satellites.

Loading next visibility...
Identifier
45755, 2020-038AB
Orbit
LEO
Country
Flag of USUS
Related business
Manufacturer
SpaceX/Seattle
Mission
Operational Commercial Communications
Bus & Motor
STARLINK, Unknown motor
Mass
260 kg wet, ~248 kg dry
Launch date (UTC)
2020-06-13 (6 years ago)
Launch vehicle
FALCON 9
Launch site
Air Force Eastern Test Range (AFETR)
Object type
Payload
Rocket body
Debris
Shape & HBR
Box + 1 Pan, 10.1 m
Radar Cross Section
13.562 m², Large (>1 m²)

Expand to show TLE details & history
Last TLE update: 14 hours ago

TLE from 14 hours ago
0 STARLINK-1478
1 45755U 20038AB  26033.66670139  .00137632  00000-0  25652-2 0  9995
2 45755  53.0557   6.3253 0005638  86.6499 331.3504 15.47854737  5731
Epoch: 2026-02-02T16:00Z
TLE epoch observation values (Epoch: 2026-02-02T16:00:03.000Z)
Latitude
42.79016°
Longitude
37.26433°
Altitude
423.815 km
Speed
7.664 km/s
True Right ascension
03h 20m 32s
True Declination
42° 36' 37"
Sunlit
Object was in daylight at epoch
Visualization orbit readout
Latitude
Unknown
Longitude
Unknown
Altitude
Unknown
Speed
Unknown
Apparent Right ascension
Unknown
Apparent Declination
Unknown
Sunlit
N/A
Visualization observer readout
Local Sidereal Time
07:49:32
Azimuth
Unknown
Elevation
Unknown
Doppler factor
Unknown
Orbital elements
Apogee altitude
427.113 km
Perigee altitude
419.444 km
Semi-major axis
6,801.415 km
Eccentricity
0.00056
Inclination
53.0557°
RAAN
6.3253°
Arg. of periapsis
86.6499°
True anomaly
331.31941°
Mean anomaly
331.3504°
Eccentric anomaly
331.3349°
Mean motion
3.86941 °/min
Orbital period
93.04 mins
BSTAR
0.0025652
Loading maneuver chart data...
Computing Atmospheric mass density...
Loading historical data...
Loading historical data...
Loading historical data...
Loading historical data...
Loading historical data...
Loading historical data...
Loading historical data...

Documentation

Showing up to 5 results
|